Regional Weather Roundup
Issued by NWS Charleston, SC

Current Version | Previous Version | Graphics & Text | Print | Product List | Glossary On
Versions: 1 2 3 4 5 6 7 8 9 10 11 12 13 14 15 16 17 18 19 20 21 22 23 24 25 26 27 28 29 30 31 32 33 34 35 36 37 38 39 40 41 42 43 44 45 46 47 48 49 50
000 ASUS42 KCHS 231412 RWRCHS Regional Weather Roundup National Weather Service Charleston SC 1000 AM EDT WED MAY 23 2018 NOTE: "fair" indicates few or no clouds below 12,000 feet with no significant weather and/or obstructions to visibility. Not all stations are quality controlled. Use data with caution, especially dewpoint observations. SCZ027-030-031-034>040-042>050-231500- ...Southeast South Carolina... CITY SKY/WX TMP DP RH WIND PRES REMARKS N Charleston PTSUNNY 80 70 71 W9 30.13R Waterfront Prk N/A 79 73 82 SW7 29.97R Mount Pleasant FAIR 81 72 74 SW6 30.13S Johns Island NOT AVBL Pinopolis N/A 75 72 88 W10 30.07R Moncks Corner CLOUDY 77 70 78 SW8 30.13S Summerville CLOUDY 77 70 78 W3 30.14S Beaufort MCAS FAIR 82 70 66 SW8 30.13R Beaufort Arpt PTSUNNY 81 70 69 SW7 30.13R Hilton Head Is MOSUNNY 81 68 65 S14 30.14R Walterboro PTSUNNY 79 70 73 CALM 30.14S Allendale PTSUNNY 77 72 83 VRB5 30.12R ...Southern Midlands and Pee Dee... CITY SKY/WX TMP DP RH WIND PRES REMARKS Georgetown CLOUDY 79 75 89 SW7 30.14R Kingstree LGT RAIN 73 73 100 SW3 30.13R Orangeburg CLOUDY 77 70 79 SW6 30.12S Barnwell PTSUNNY 77 70 78 W3 30.13R Aiken CLOUDY 70 70 100 S5 30.16S FOG Manning DRIZZLE 70 68 94 CALM 30.13S Columbia CLOUDY 80 72 76 VRB3 30.11R Sumter PTSUNNY 76 69 79 SW7 30.10S Florence CLOUDY 78 70 76 SW7 30.12S Myrtle Beach PTSUNNY 79 71 76 W13 30.13S N Myrtle Beach PTSUNNY 77 73 87 W8 30.12R $$ GAZ063-065-086>088-099>101-113>116-118-119-134>141-150-231500- ...Southeast Georgia... CITY SKY/WX TMP DP RH WIND PRES REMARKS Savannah Arpt FAIR 81 70 69 SW12 30.13S Hunter AAF FAIR 80 71 72 S8 30.10S Fort Stewart PTSUNNY 80 68 67 SW10 30.11S Statesboro PTSUNNY 79 69 73 SW7 30.13R Sylvania PTSUNNY 78 72 80 SW5 30.13S Claxton FAIR 80 71 74 SW5 30.13S ...CSRA, Central and far Southeast Georgia... CITY SKY/WX TMP DP RH WIND PRES REMARKS Thomson CLOUDY 73 70 89 W3 30.17R Augusta-Bush CLOUDY 75 71 87 CALM 30.12R Augusta-Daniel PTSUNNY 76 71 85 SW3 30.13S Swainsboro CLOUDY 77 72 83 SW9 30.13S Vidalia PTSUNNY 77 68 73 SW6 30.13S Eastman CLOUDY 76 66 72 SW7 30.15R Hazlehurst N/A 78 69 74 S3 30.12S Alma FAIR 78 70 76 S6 30.13R Waycross PTSUNNY 79 72 78 SW9 30.13S Jesup NOT AVBL Baxley CLOUDY 77 75 94 SW9 30.13R Brunswick FAIR 81 68 65 SW12 30.14R Saint Simons FAIR 81 69 67 SW10G21 30.13R $$ SCZ027-028-034-036>038-045-046-048>050-GAZ119-141-231500- ...Lake and Supplemental Coastal Observations... STATION/POSITION TIME TEMP WIND PRES WAVE SWELL AIR SEA DIR/SP/G HT/PER HT/PER/DIR (UTC) (F) (DEG/KT/KT) (MB) (FT/S) (FT/S/D) Winyah Bay 1245 78 250/ 8 1020.0 Lake Murray NOT AVBL ACE Basin NERRS 1245 79 180/ 1 1020.0 Fort Pulaski 1342 79 78 220/ 7/ 12 1020.5R Sapelo Island 1300 78 220/ 11 1020.0 $$ ANZ835-935-AMZ111-154-330-350-352-354-370-450-454-472-231500- ...C-MAN and Buoy Observations... STATION/POSITION TIME TEMP WIND PRES WAVE SWELL AIR SEA DIR/SP/G HT/PER HT/PER/DIR (UTC) (F) (DEG/KT/KT) (MB) (FT/S) (FT/S/D) Buoy 41004 1350 74 230/ 8/ 10 1020.6R 4/ 8 3/140/ 8 Buoy 41008 1350 76 76 190/ 10/ 10 1020.1R 3/ 8 3/110/ 8 Folly Beach CMAN 1300 77 220/ 11/ 13 1020.8R Capers Nearshore 1308 77 76 240/ 12/ 16 1020.9R Fripp Nearshore 1308 76 78 230/ 12/ 17 1019.8R STATION/POSITION TIME TEMP WIND PRES WAVE SWELL AIR SEA DIR/SP/G HT/PER HT/PER/DIR (UTC) (F) (DEG/KT/KT) (MB) (FT/S) (FT/S/D) 5E St. Marys GA 1330 76 N/A 2/ 8 Frying Pan Buoy 1350 76 76 220/ 10/ 12 1020.5R 3/ 8 3/120/ 8 Buoy 41025 1350 75 74 250/ 14/ 16 1019.1R 4/ 5 2/130/ 8 Cape Lookout NC 1300 220/ 10/ 14 1019.3F Buoy 41002 1350 78 200/ 10/ 12 1021.5S 3/ 9 3/130/ 9 Buoy 41010 1350 78 78 140/ 8/ 10 1021.1R 4/ 8 3/110/ 8 St Augustine FL 1400 76 77 140/ 8/ 9 1020.8R $$

USA.gov is the U.S. government's official web portal to all federal, state and local government web resources and services.